Location: Newark
(21.1200°N, 73.4000°E)
Time: 21:57:33
(UTC+00:00)

Courier 1B Rocket - Pass Details

Date: 21 January 2020
Orbit: 920 x 1202 km, 28.2° (Epoch: 19 February)

Event Time Altitude Azimuth Distance (km) Brightness Sun altitude
Rises 09:29:38 0° 275° (W) 3,751 8.5 37.7°
Reaches altitude 10° 09:32:31 10° 282° (WNW) 2,757 7.8 37.3°
Maximum altitude 09:38:51 46° 354° (N) 1,255 5.7 36.3°
Drops below altitude 10° 09:44:53 10° 67° (ENE) 2,623 6.9 35.4°
Sets 09:47:34 0° 73° (ENE) 3,553 7.5 34.9°
